COSMOS 1275 DEB, 39947

Orbit data source: Space-Track

COSMOS 1275 DEB, 39947 is space debris in LEO originally from a launch on Thu, 04 Jun 1981 UTC launched from the Plesetsk Missile And Space Complex (PKMTR). Debris objects in space refer to the collection of defunct objects orbiting the Earth. Examples of debris include non-operational satellites, rocket bodies, and fragments generated from explosions, collisions, or faulty payload assembly.

Loading next visibility...
Identifier
39947, 1981-053NH
Orbit
LEO
Country
Flag of CISCIS
Related business
Manufacturer
Unknown
Mission
Spacecraft
Bus & Motor
Unknown
Mass
Unknown
Launch date (UTC)
1981-06-04 (44 years ago)
Launch vehicle
Unknown
Launch site
Plesetsk Missile And Space Complex (PKMTR)
Object type
Payload
Rocket body
Debris
Shape & HBR
Unknown shape, 0.1 m
Radar Cross Section
Small (<0.1 m²)

Expand to show TLE details & history
Last TLE update: 2 days ago

TLE from 2 days ago
0 COSMOS 1275 DEB
1 39947U 81053NH  25295.06420189  .00001210  00000-0  13397-2 0  9991
2 39947  83.0148 144.5319 0113949 175.2384 342.9209 13.68248473565575
Epoch: 2025-10-22T01:32Z
TLE epoch observation values (Epoch: 2025-10-22T01:32:27.043Z)
Latitude
22.06991°
Longitude
-92.15643°
Altitude
928.184 km
Speed
7.43 km/s
True Right ascension
21h 26m 47s
True Declination
21° 57' 12"
Sunlit
Object was in daylight at epoch
Visualization orbit readout
Latitude
Unknown
Longitude
Unknown
Altitude
Unknown
Speed
Unknown
Apparent Right ascension
Unknown
Apparent Declination
Unknown
Sunlit
N/A
Visualization observer readout
Local Sidereal Time
08:55:32
Azimuth
Unknown
Elevation
Unknown
Doppler factor
Unknown
Orbital elements
Apogee altitude
1,087.128 km
Perigee altitude
918.913 km
Semi-major axis
7,381.158 km
Eccentricity
0.01139
Inclination
83.0148°
RAAN
144.5319°
Arg. of periapsis
175.2384°
True anomaly
342.53212°
Mean anomaly
342.9209°
Eccentric anomaly
342.72704°
Mean motion
3.4226 °/min
Orbital period
105.18 mins
BSTAR
0.0013397
Loading maneuver chart data...
Computing Atmospheric mass density...

Documentation

Showing up to 5 results
|